Time,TemperatureF,DewpointF,PressureIn,WindDirection,WindDirectionDegrees,WindSpeedMPH,WindSpeedGustMPH,Humidity,HourlyPrecipIn,Conditions,Clouds,dailyrainin,SoftwareType,DateUTC
2013-02-16 00:00:00,33.8,21.0,28.91,NNW,337,0.0,1.2,57,0.00,,,0.00,Rainwise IP-100,2013-02-16 06:00:00,
2013-02-16 00:05:00,33.4,21.0,28.92,NNW,337,0.0,1.2,59,0.00,,,0.00,Rainwise IP-100,2013-02-16 06:05:00,
2013-02-16 00:10:00,32.6,23.0,28.92,NNW,337,0.0,0.0,62,0.00,,,0.00,Rainwise IP-100,2013-02-16 06:10:00,
2013-02-16 00:15:00,31.8,23.0,28.92,NNW,337,0.0,0.0,65,0.00,,,0.00,Rainwise IP-100,2013-02-16 06:15:00,
2013-02-16 00:20:00,31.3,21.0,28.92,NNW,337,0.0,0.0,67,0.00,,,0.00,Rainwise IP-100,2013-02-16 06:20:00,
2013-02-16 00:25:00,30.9,21.0,28.92,NNW,337,0.0,0.0,67,0.00,,,0.00,Rainwise IP-100,2013-02-16 06:25:00,
2013-02-16 00:30:00,30.9,21.0,28.92,NNW,337,0.0,0.0,67,0.00,,,0.00,Rainwise IP-100,2013-02-16 06:30:00,
2013-02-16 00:35:00,30.6,23.0,28.92,NNW,337,0.0,0.0,69,0.00,,,0.00,Rainwise IP-100,2013-02-16 06:35:00,
2013-02-16 00:40:00,30.0,23.0,28.92,NNW,337,1.4,1.6,72,0.00,,,0.00,Rainwise IP-100,2013-02-16 06:40:00,
2013-02-16 00:45:00,29.9,23.0,28.92,NNW,337,1.6,2.1,71,0.00,,,0.00,Rainwise IP-100,2013-02-16 06:45:00,
2013-02-16 00:50:00,30.4,23.0,28.92,NNW,337,1.4,1.9,69,0.00,,,0.00,Rainwise IP-100,2013-02-16 06:50:00,
2013-02-16 00:55:00,30.9,21.0,28.92,NNW,337,1.2,2.3,66,0.00,,,0.00,Rainwise IP-100,2013-02-16 06:55:00,
2013-02-16 01:00:00,31.3,21.0,28.92,NNW,337,1.2,1.6,65,0.00,,,0.00,Rainwise IP-100,2013-02-16 07:00:00,
2013-02-16 01:02:00,31.3,21.0,28.92,NNW,337,1.2,1.4,66,0.00,,,0.00,Rainwise IP-100,2013-02-16 07:02:00,
2013-02-16 01:07:00,31.2,21.0,28.92,NNW,337,1.4,1.6,67,0.00,,,0.00,Rainwise IP-100,2013-02-16 07:07:00,
2013-02-16 01:12:00,31.5,23.0,28.92,NNW,337,0.0,1.6,64,0.00,,,0.00,Rainwise IP-100,2013-02-16 07:12:00,
2013-02-16 01:13:00,31.6,23.0,28.92,NNW,337,0.0,1.6,64,0.00,,,0.00,Rainwise IP-100,2013-02-16 07:13:00,
2013-02-16 01:15:00,31.6,23.0,28.92,NNW,337,0.0,1.6,64,0.00,,,0.00,Rainwise IP-100,2013-02-16 07:15:00,
2013-02-16 01:20:00,31.2,21.0,28.92,NNW,337,2.3,2.3,66,0.00,,,0.00,Rainwise IP-100,2013-02-16 07:20:00,
2013-02-16 01:25:00,31.3,21.0,28.92,NNW,337,1.9,2.8,64,0.00,,,0.00,Rainwise IP-100,2013-02-16 07:25:00,
2013-02-16 01:30:00,31.6,21.0,28.92,NNW,337,0.0,2.1,63,0.00,,,0.00,Rainwise IP-100,2013-02-16 07:30:00,
2013-02-16 01:35:00,31.3,21.0,28.92,NNW,337,1.6,1.9,65,0.00,,,0.00,Rainwise IP-100,2013-02-16 07:35:00,
2013-02-16 01:40:00,30.6,21.0,28.92,NNW,337,0.0,2.1,66,0.00,,,0.00,Rainwise IP-100,2013-02-16 07:40:00,
2013-02-16 01:45:00,30.0,23.0,28.92,NNW,337,2.3,2.3,68,0.00,,,0.00,Rainwise IP-100,2013-02-16 07:45:00,
2013-02-16 01:50:00,30.0,23.0,28.92,NNW,337,0.0,3.0,69,0.00,,,0.00,Rainwise IP-100,2013-02-16 07:50:00,
2013-02-16 01:55:00,30.4,21.0,28.92,NNW,337,1.9,2.3,67,0.00,,,0.00,Rainwise IP-100,2013-02-16 07:55:00,
2013-02-16 02:00:00,31.0,21.0,28.91,NNW,337,1.2,2.1,65,0.00,,,0.00,Rainwise IP-100,2013-02-16 08:00:00,
2013-02-16 02:05:00,31.3,21.0,28.92,NNW,337,1.9,2.6,64,0.00,,,0.00,Rainwise IP-100,2013-02-16 08:05:00,
2013-02-16 02:10:00,31.2,21.0,28.92,NNW,337,1.9,2.8,64,0.00,,,0.00,Rainwise IP-100,2013-02-16 08:10:00,
2013-02-16 02:15:00,31.0,21.0,28.92,NNW,337,0.0,2.1,65,0.00,,,0.00,Rainwise IP-100,2013-02-16 08:15:00,
2013-02-16 02:20:00,30.8,21.0,28.92,NNW,337,0.0,2.8,66,0.00,,,0.00,Rainwise IP-100,2013-02-16 08:20:00,
2013-02-16 02:25:00,30.9,21.0,28.92,NNW,337,0.0,1.9,65,0.00,,,0.00,Rainwise IP-100,2013-02-16 08:25:00,
2013-02-16 02:30:00,31.0,21.0,28.92,NNW,337,1.2,1.6,65,0.00,,,0.00,Rainwise IP-100,2013-02-16 08:30:00,
2013-02-16 02:35:00,31.0,21.0,28.92,NNW,337,0.0,2.1,65,0.00,,,0.00,Rainwise IP-100,2013-02-16 08:35:00,
2013-02-16 02:40:00,30.9,21.0,28.91,NNW,337,0.0,1.4,65,0.00,,,0.00,Rainwise IP-100,2013-02-16 08:40:00,
2013-02-16 02:45:00,30.8,21.0,28.92,NNW,337,2.3,2.3,65,0.00,,,0.00,Rainwise IP-100,2013-02-16 08:45:00,
2013-02-16 02:50:00,30.7,21.0,28.92,NNW,337,1.4,2.6,65,0.00,,,0.00,Rainwise IP-100,2013-02-16 08:50:00,
2013-02-16 02:55:00,30.6,21.0,28.92,NNW,337,0.0,2.6,65,0.00,,,0.00,Rainwise IP-100,2013-02-16 08:55:00,
2013-02-16 03:00:00,30.6,21.0,28.92,NNW,337,1.2,1.4,66,0.00,,,0.00,Rainwise IP-100,2013-02-16 09:00:00,
2013-02-16 03:05:00,30.6,21.0,28.92,NNW,337,0.0,1.4,65,0.00,,,0.00,Rainwise IP-100,2013-02-16 09:05:00,
2013-02-16 03:10:00,30.6,21.0,28.92,NNW,337,1.4,1.6,65,0.00,,,0.00,Rainwise IP-100,2013-02-16 09:10:00,
2013-02-16 03:15:00,30.3,21.0,28.92,NNW,337,2.6,2.6,65,0.00,,,0.00,Rainwise IP-100,2013-02-16 09:15:00,
2013-02-16 03:20:00,30.1,21.0,28.92,NNW,337,1.6,2.6,65,0.00,,,0.00,Rainwise IP-100,2013-02-16 09:20:00,
2013-02-16 03:25:00,30.2,21.0,28.92,NNW,337,1.2,2.1,65,0.00,,,0.00,Rainwise IP-100,2013-02-16 09:25:00,
2013-02-16 03:30:00,30.2,21.0,28.92,NNW,337,1.4,1.9,65,0.00,,,0.00,Rainwise IP-100,2013-02-16 09:30:00,
2013-02-16 03:35:00,30.1,21.0,28.92,NNW,337,0.0,1.9,66,0.00,,,0.00,Rainwise IP-100,2013-02-16 09:35:00,
2013-02-16 03:40:00,29.6,21.0,28.92,NNW,337,0.0,1.9,67,0.00,,,0.00,Rainwise IP-100,2013-02-16 09:40:00,
2013-02-16 03:45:00,29.4,21.0,28.92,NNW,337,0.0,2.3,68,0.00,,,0.00,Rainwise IP-100,2013-02-16 09:45:00,
2013-02-16 03:50:00,29.7,21.0,28.92,NNW,337,1.2,1.6,67,0.00,,,0.00,Rainwise IP-100,2013-02-16 09:50:00,
2013-02-16 03:56:00,30.1,21.0,28.92,NNW,337,1.2,1.6,65,0.00,,,0.00,Rainwise IP-100,2013-02-16 09:56:00,
2013-02-16 04:01:00,30.6,21.0,28.92,NNW,337,0.0,1.6,64,0.00,,,0.00,Rainwise IP-100,2013-02-16 10:01:00,
2013-02-16 04:06:00,30.5,21.0,28.92,NNW,337,1.4,2.3,64,0.00,,,0.00,Rainwise IP-100,2013-02-16 10:06:00,
2013-02-16 04:11:00,30.4,21.0,28.92,NW,315,1.4,2.6,64,0.00,,,0.00,Rainwise IP-100,2013-02-16 10:11:00,
2013-02-16 04:16:00,30.6,21.0,28.92,NW,315,1.9,2.1,64,0.00,,,0.00,Rainwise IP-100,2013-02-16 10:16:00,
2013-02-16 04:21:00,30.6,21.0,28.92,WNW,292,1.4,2.3,65,0.00,,,0.00,Rainwise IP-100,2013-02-16 10:21:00,
2013-02-16 04:26:00,30.4,21.0,28.92,WNW,292,0.0,4.4,67,0.00,,,0.00,Rainwise IP-100,2013-02-16 10:26:00,
2013-02-16 04:31:00,30.3,23.0,28.92,WNW,292,0.0,2.3,68,0.00,,,0.00,Rainwise IP-100,2013-02-16 10:31:00,
2013-02-16 04:36:00,30.3,23.0,28.92,WNW,292,1.2,2.1,69,0.00,,,0.00,Rainwise IP-100,2013-02-16 10:36:00,
2013-02-16 04:41:00,30.0,23.0,28.92,WNW,292,0.0,2.3,69,0.00,,,0.00,Rainwise IP-100,2013-02-16 10:41:00,
2013-02-16 04:46:00,29.7,23.0,28.92,WNW,292,0.0,2.1,70,0.00,,,0.00,Rainwise IP-100,2013-02-16 10:46:00,
2013-02-16 04:51:00,29.5,23.0,28.92,WNW,292,0.0,2.1,70,0.00,,,0.00,Rainwise IP-100,2013-02-16 10:51:00,
2013-02-16 04:56:00,29.3,21.0,28.92,WNW,292,1.2,2.1,71,0.00,,,0.00,Rainwise IP-100,2013-02-16 10:56:00,
2013-02-16 05:01:00,29.2,21.0,28.92,WNW,292,0.0,1.6,71,0.00,,,0.00,Rainwise IP-100,2013-02-16 11:01:00,
2013-02-16 05:06:00,29.1,21.0,28.92,WNW,292,1.2,1.6,71,0.00,,,0.00,Rainwise IP-100,2013-02-16 11:06:00,
2013-02-16 05:11:00,29.0,23.0,28.92,WNW,292,0.0,2.3,72,0.00,,,0.00,Rainwise IP-100,2013-02-16 11:11:00,
2013-02-16 05:16:00,29.1,23.0,28.92,WNW,292,0.0,2.1,73,0.00,,,0.00,Rainwise IP-100,2013-02-16 11:16:00,
2013-02-16 05:21:00,29.1,23.0,28.92,WNW,292,1.4,1.9,73,0.00,,,0.00,Rainwise IP-100,2013-02-16 11:21:00,
2013-02-16 05:26:00,28.9,23.0,28.92,WNW,292,0.0,3.7,73,0.00,,,0.00,Rainwise IP-100,2013-02-16 11:26:00,
2013-02-16 05:31:00,28.8,23.0,28.92,WNW,292,1.2,1.9,73,0.00,,,0.00,Rainwise IP-100,2013-02-16 11:31:00,
2013-02-16 05:36:00,28.8,23.0,28.92,West,270,4.9,6.5,74,0.00,,,0.00,Rainwise IP-100,2013-02-16 11:36:00,
2013-02-16 05:41:00,29.0,23.0,28.92,WNW,292,1.6,7.5,73,0.00,,,0.00,Rainwise IP-100,2013-02-16 11:41:00,
2013-02-16 05:46:00,29.3,23.0,28.92,WNW,292,1.6,3.0,73,0.00,,,0.00,Rainwise IP-100,2013-02-16 11:46:00,
2013-02-16 05:51:00,29.2,23.0,28.92,West,270,1.6,4.2,73,0.00,,,0.00,Rainwise IP-100,2013-02-16 11:51:00,
2013-02-16 05:56:00,29.1,23.0,28.92,WNW,292,0.0,3.3,73,0.00,,,0.00,Rainwise IP-100,2013-02-16 11:56:00,
2013-02-16 06:01:00,28.9,23.0,28.92,WNW,292,0.0,2.1,74,0.00,,,0.00,Rainwise IP-100,2013-02-16 12:01:00,
2013-02-16 06:06:00,28.5,23.0,28.92,WNW,292,0.0,0.0,74,0.00,,,0.00,Rainwise IP-100,2013-02-16 12:06:00,
2013-02-16 06:11:00,27.8,21.0,28.92,WNW,292,0.0,0.0,76,0.00,,,0.00,Rainwise IP-100,2013-02-16 12:11:00,
2013-02-16 06:16:00,27.1,23.0,28.92,WNW,292,0.0,0.0,78,0.00,,,0.00,Rainwise IP-100,2013-02-16 12:16:00,
2013-02-16 06:21:00,26.6,23.0,28.92,WNW,292,0.0,0.0,79,0.00,,,0.00,Rainwise IP-100,2013-02-16 12:21:00,
2013-02-16 06:26:00,26.5,23.0,28.92,WNW,292,1.2,1.9,80,0.00,,,0.00,Rainwise IP-100,2013-02-16 12:26:00,
2013-02-16 06:31:00,26.8,23.0,28.92,West,270,2.1,3.5,80,0.00,,,0.00,Rainwise IP-100,2013-02-16 12:31:00,
2013-02-16 06:36:00,27.3,23.0,28.92,West,270,3.0,5.4,79,0.00,,,0.00,Rainwise IP-100,2013-02-16 12:36:00,
2013-02-16 06:41:00,27.9,23.0,28.92,West,270,1.6,5.1,77,0.00,,,0.00,Rainwise IP-100,2013-02-16 12:41:00,
2013-02-16 06:46:00,28.4,21.0,28.93,West,270,5.8,5.8,75,0.00,,,0.00,Rainwise IP-100,2013-02-16 12:46:00,
2013-02-16 06:51:00,28.6,23.0,28.93,West,270,4.9,5.8,74,0.00,,,0.00,Rainwise IP-100,2013-02-16 12:51:00,
2013-02-16 06:56:00,28.7,23.0,28.93,West,270,4.7,5.4,74,0.00,,,0.00,Rainwise IP-100,2013-02-16 12:56:00,
2013-02-16 07:01:00,28.8,23.0,28.92,West,270,4.4,5.4,73,0.00,,,0.00,Rainwise IP-100,2013-02-16 13:01:00,
2013-02-16 07:06:00,28.8,23.0,28.92,West,270,5.6,5.6,73,0.00,,,0.00,Rainwise IP-100,2013-02-16 13:06:00,
2013-02-16 07:11:00,28.8,23.0,28.93,West,270,4.0,6.5,73,0.00,,,0.00,Rainwise IP-100,2013-02-16 13:11:00,
2013-02-16 07:16:00,28.8,23.0,28.93,West,270,4.7,7.2,73,0.00,,,0.00,Rainwise IP-100,2013-02-16 13:16:00,
2013-02-16 07:21:00,28.9,23.0,28.92,West,270,3.5,7.0,73,0.00,,,0.00,Rainwise IP-100,2013-02-16 13:21:00,
2013-02-16 07:26:00,28.9,23.0,28.93,West,270,2.3,5.4,73,0.00,,,0.00,Rainwise IP-100,2013-02-16 13:26:00,
2013-02-16 07:31:00,28.9,23.0,28.93,West,270,2.6,6.1,73,0.00,,,0.00,Rainwise IP-100,2013-02-16 13:31:00,
2013-02-16 07:36:00,29.0,23.0,28.94,West,270,3.7,7.2,73,0.00,,,0.00,Rainwise IP-100,2013-02-16 13:36:00,
2013-02-16 07:41:00,29.2,23.0,28.94,WNW,292,2.3,6.5,72,0.00,,,0.00,Rainwise IP-100,2013-02-16 13:41:00,
2013-02-16 07:46:00,29.5,23.0,28.94,West,270,4.4,5.4,72,0.00,,,0.00,Rainwise IP-100,2013-02-16 13:46:00,
2013-02-16 07:51:00,29.8,23.0,28.95,West,270,6.3,6.8,72,0.00,,,0.00,Rainwise IP-100,2013-02-16 13:51:00,
2013-02-16 07:56:00,30.1,23.0,28.94,West,270,5.8,7.2,72,0.00,,,0.00,Rainwise IP-100,2013-02-16 13:56:00,
2013-02-16 08:01:00,30.5,23.0,28.95,WSW,247,4.9,7.9,71,0.00,,,0.00,Rainwise IP-100,2013-02-16 14:01:00,
2013-02-16 08:06:00,30.8,23.0,28.95,West,270,4.0,9.3,71,0.00,,,0.00,Rainwise IP-100,2013-02-16 14:06:00,
2013-02-16 08:11:00,31.1,23.0,28.95,West,270,5.6,6.5,71,0.00,,,0.00,Rainwise IP-100,2013-02-16 14:11:00,
2013-02-16 08:16:00,31.4,23.0,28.95,WSW,247,2.8,9.1,70,0.00,,,0.00,Rainwise IP-100,2013-02-16 14:16:00,
2013-02-16 08:21:00,31.9,23.0,28.95,West,270,7.5,7.7,69,0.00,,,0.00,Rainwise IP-100,2013-02-16 14:21:00,
2013-02-16 08:26:00,32.5,24.0,28.95,WSW,247,3.5,7.5,69,0.00,,,0.00,Rainwise IP-100,2013-02-16 14:26:00,
2013-02-16 08:31:00,33.2,24.0,28.95,West,270,6.1,7.0,68,0.00,,,0.00,Rainwise IP-100,2013-02-16 14:31:00,
2013-02-16 08:36:00,33.7,24.0,28.95,West,270,6.1,8.2,67,0.00,,,0.00,Rainwise IP-100,2013-02-16 14:36:00,
2013-02-16 08:41:00,34.2,24.0,28.95,West,270,4.0,9.1,65,0.00,,,0.00,Rainwise IP-100,2013-02-16 14:41:00,
2013-02-16 08:46:00,34.7,24.0,28.95,West,270,5.6,8.9,64,0.00,,,0.00,Rainwise IP-100,2013-02-16 14:46:00,
2013-02-16 08:51:00,35.2,23.0,28.96,WSW,247,8.2,10.3,62,0.00,,,0.00,Rainwise IP-100,2013-02-16 14:51:00,
2013-02-16 08:56:00,35.7,24.0,28.96,WSW,247,4.2,10.0,61,0.00,,,0.00,Rainwise IP-100,2013-02-16 14:56:00,
2013-02-16 09:01:00,36.3,24.0,28.96,NW,315,3.0,8.4,61,0.00,,,0.00,Rainwise IP-100,2013-02-16 15:01:00,
2013-02-16 09:06:00,37.0,24.0,28.96,WSW,247,3.5,9.8,60,0.00,,,0.00,Rainwise IP-100,2013-02-16 15:06:00,
2013-02-16 09:11:00,37.8,24.0,28.96,West,270,7.5,8.6,58,0.00,,,0.00,Rainwise IP-100,2013-02-16 15:11:00,
2013-02-16 09:16:00,38.1,24.0,28.96,WSW,247,6.1,10.5,57,0.00,,,0.00,Rainwise IP-100,2013-02-16 15:16:00,
2013-02-16 09:21:00,38.3,24.0,28.95,SSW,202,1.6,12.1,57,0.00,,,0.00,Rainwise IP-100,2013-02-16 15:21:00,
2013-02-16 09:26:00,38.9,24.0,28.96,WNW,292,7.5,11.7,56,0.00,,,0.00,Rainwise IP-100,2013-02-16 15:26:00,
2013-02-16 09:31:00,39.2,24.0,28.96,WSW,247,7.5,11.9,55,0.00,,,0.00,Rainwise IP-100,2013-02-16 15:31:00,
2013-02-16 09:36:00,39.5,26.0,28.96,West,270,6.1,10.7,54,0.00,,,0.00,Rainwise IP-100,2013-02-16 15:36:00,
2013-02-16 09:41:00,40.2,26.0,28.96,WSW,247,3.5,11.0,54,0.00,,,0.00,Rainwise IP-100,2013-02-16 15:41:00,
2013-02-16 09:46:00,41.0,26.0,28.95,West,270,5.8,8.9,53,0.00,,,0.00,Rainwise IP-100,2013-02-16 15:46:00,
2013-02-16 09:51:00,41.7,26.0,28.96,West,270,5.1,10.5,52,0.00,,,0.00,Rainwise IP-100,2013-02-16 15:51:00,
2013-02-16 09:56:00,42.2,26.0,28.95,WSW,247,8.6,15.6,51,0.00,,,0.00,Rainwise IP-100,2013-02-16 15:56:00,
2013-02-16 10:01:00,42.9,26.0,28.95,WSW,247,8.4,11.0,50,0.00,,,0.00,Rainwise IP-100,2013-02-16 16:01:00,
2013-02-16 10:06:00,43.6,26.0,28.96,WSW,247,8.9,12.4,48,0.00,,,0.00,Rainwise IP-100,2013-02-16 16:06:00,
2013-02-16 10:11:00,44.3,26.0,28.96,West,270,9.1,11.7,47,0.00,,,0.00,Rainwise IP-100,2013-02-16 16:11:00,
2013-02-16 10:16:00,45.0,26.0,28.96,WSW,247,5.6,14.2,45,0.00,,,0.00,Rainwise IP-100,2013-02-16 16:16:00,
2013-02-16 10:21:00,45.4,24.0,28.96,WNW,292,4.9,12.4,43,0.00,,,0.00,Rainwise IP-100,2013-02-16 16:21:00,
2013-02-16 10:26:00,46.1,24.0,28.96,SW,225,7.2,13.3,42,0.00,,,0.00,Rainwise IP-100,2013-02-16 16:26:00,
2013-02-16 10:31:00,47.0,24.0,28.95,WSW,247,7.5,12.6,40,0.00,,,0.00,Rainwise IP-100,2013-02-16 16:31:00,
2013-02-16 10:36:00,47.8,24.0,28.95,WSW,247,3.3,13.3,38,0.00,,,0.00,Rainwise IP-100,2013-02-16 16:36:00,
2013-02-16 10:41:00,48.1,24.0,28.95,WSW,247,6.1,13.3,37,0.00,,,0.00,Rainwise IP-100,2013-02-16 16:41:00,
2013-02-16 10:46:00,48.3,24.0,28.95,WNW,292,5.1,14.9,37,0.00,,,0.00,Rainwise IP-100,2013-02-16 16:46:00,
2013-02-16 10:51:00,48.7,24.0,28.95,WSW,247,5.6,12.1,37,0.00,,,0.00,Rainwise IP-100,2013-02-16 16:51:00,
2013-02-16 10:57:00,49.1,24.0,28.94,WNW,292,7.9,13.8,36,0.00,,,0.00,Rainwise IP-100,2013-02-16 16:57:00,
2013-02-16 11:02:00,49.3,24.0,28.95,West,270,3.3,13.3,36,0.00,,,0.00,Rainwise IP-100,2013-02-16 17:02:00,
2013-02-16 11:07:00,50.0,24.0,28.94,SW,225,7.7,10.0,36,0.00,,,0.00,Rainwise IP-100,2013-02-16 17:07:00,
2013-02-16 11:12:00,50.4,24.0,28.94,West,270,7.0,14.2,35,0.00,,,0.00,Rainwise IP-100,2013-02-16 17:12:00,
2013-02-16 11:17:00,50.4,24.0,28.94,West,270,5.6,12.1,35,0.00,,,0.00,Rainwise IP-100,2013-02-16 17:17:00,
2013-02-16 11:22:00,50.7,24.0,28.94,WSW,247,10.7,12.1,35,0.00,,,0.00,Rainwise IP-100,2013-02-16 17:22:00,
2013-02-16 11:27:00,50.9,24.0,28.94,WNW,292,3.5,12.8,35,0.00,,,0.00,Rainwise IP-100,2013-02-16 17:27:00,
2013-02-16 11:32:00,51.3,24.0,28.94,WSW,247,6.3,11.4,34,0.00,,,0.00,Rainwise IP-100,2013-02-16 17:32:00,
2013-02-16 11:37:00,51.8,24.0,28.93,SSW,202,6.5,8.4,34,0.00,,,0.00,Rainwise IP-100,2013-02-16 17:37:00,
2013-02-16 11:42:00,52.3,24.0,28.93,WSW,247,7.5,11.0,33,0.00,,,0.00,Rainwise IP-100,2013-02-16 17:42:00,
2013-02-16 11:47:00,53.0,24.0,28.93,West,270,3.5,10.7,33,0.00,,,0.00,Rainwise IP-100,2013-02-16 17:47:00,
2013-02-16 11:52:00,52.9,24.0,28.93,West,270,6.3,10.7,32,0.00,,,0.00,Rainwise IP-100,2013-02-16 17:52:00,
2013-02-16 11:57:00,52.6,24.0,28.92,SW,225,7.5,12.6,32,0.00,,,0.00,Rainwise IP-100,2013-02-16 17:57:00,
2013-02-16 12:02:00,52.9,24.0,28.92,WSW,247,8.2,11.9,33,0.00,,,0.00,Rainwise IP-100,2013-02-16 18:02:00,
2013-02-16 12:07:00,53.3,26.0,28.92,WNW,292,7.0,14.9,33,0.00,,,0.00,Rainwise IP-100,2013-02-16 18:07:00,
2013-02-16 12:12:00,53.5,24.0,28.91,WSW,247,7.7,10.0,32,0.00,,,0.00,Rainwise IP-100,2013-02-16 18:12:00,
2013-02-16 12:17:00,53.6,24.0,28.91,WNW,292,8.9,14.5,32,0.00,,,0.00,Rainwise IP-100,2013-02-16 18:17:00,
2013-02-16 12:22:00,53.7,24.0,28.90,WSW,247,10.0,12.8,32,0.00,,,0.00,Rainwise IP-100,2013-02-16 18:22:00,
2013-02-16 12:27:00,54.0,24.0,28.90,SSW,202,8.6,13.3,32,0.00,,,0.00,Rainwise IP-100,2013-02-16 18:27:00,
2013-02-16 12:32:00,54.3,26.0,28.90,WSW,247,4.0,13.5,32,0.00,,,0.00,Rainwise IP-100,2013-02-16 18:32:00,
2013-02-16 12:37:00,54.6,26.0,28.89,WSW,247,10.3,10.3,32,0.00,,,0.00,Rainwise IP-100,2013-02-16 18:37:00,
2013-02-16 12:42:00,54.8,26.0,28.89,NNW,337,2.3,15.6,32,0.00,,,0.00,Rainwise IP-100,2013-02-16 18:42:00,
2013-02-16 12:47:00,55.0,26.0,28.89,WSW,247,7.9,11.2,31,0.00,,,0.00,Rainwise IP-100,2013-02-16 18:47:00,
2013-02-16 12:52:00,55.3,26.0,28.88,West,270,10.7,16.1,31,0.00,,,0.00,Rainwise IP-100,2013-02-16 18:52:00,
2013-02-16 12:57:00,55.4,26.0,28.88,West,270,8.9,14.7,31,0.00,,,0.00,Rainwise IP-100,2013-02-16 18:57:00,
2013-02-16 13:02:00,55.8,26.0,28.87,WSW,247,9.6,11.4,31,0.00,,,0.00,Rainwise IP-100,2013-02-16 19:02:00,
2013-02-16 13:07:00,56.2,26.0,28.87,NW,315,4.9,14.9,31,0.00,,,0.00,Rainwise IP-100,2013-02-16 19:07:00,
2013-02-16 13:12:00,56.4,26.0,28.86,WSW,247,14.7,14.9,31,0.00,,,0.00,Rainwise IP-100,2013-02-16 19:12:00,
2013-02-16 13:17:00,56.6,26.0,28.86,West,270,5.8,15.6,31,0.00,,,0.00,Rainwise IP-100,2013-02-16 19:17:00,
2013-02-16 13:22:00,56.6,26.0,28.86,SW,225,8.6,11.2,30,0.00,,,0.00,Rainwise IP-100,2013-02-16 19:22:00,
2013-02-16 13:27:00,56.6,26.0,28.85,WSW,247,4.2,11.9,30,0.00,,,0.00,Rainwise IP-100,2013-02-16 19:27:00,
2013-02-16 13:32:00,56.8,26.0,28.85,WSW,247,6.1,10.5,30,0.00,,,0.00,Rainwise IP-100,2013-02-16 19:32:00,
2013-02-16 13:37:00,57.0,26.0,28.84,NNW,337,2.3,14.7,30,0.00,,,0.00,Rainwise IP-100,2013-02-16 19:37:00,
2013-02-16 13:42:00,57.6,26.0,28.84,SW,225,5.4,11.9,30,0.00,,,0.00,Rainwise IP-100,2013-02-16 19:42:00,
2013-02-16 13:47:00,58.1,28.0,28.83,West,270,7.7,17.0,30,0.00,,,0.00,Rainwise IP-100,2013-02-16 19:47:00,
2013-02-16 13:52:00,58.0,26.0,28.83,West,270,8.2,15.9,29,0.00,,,0.00,Rainwise IP-100,2013-02-16 19:52:00,
2013-02-16 13:57:00,58.2,26.0,28.83,SW,225,6.8,9.6,29,0.00,,,0.00,Rainwise IP-100,2013-02-16 19:57:00,
2013-02-16 14:02:00,58.3,26.0,28.83,West,270,7.5,13.8,29,0.00,,,0.00,Rainwise IP-100,2013-02-16 20:02:00,
2013-02-16 14:07:00,58.1,26.0,28.82,SW,225,6.3,15.6,29,0.00,,,0.00,Rainwise IP-100,2013-02-16 20:07:00,
2013-02-16 14:12:00,58.3,26.0,28.82,West,270,7.9,9.3,28,0.00,,,0.00,Rainwise IP-100,2013-02-16 20:12:00,
2013-02-16 14:17:00,58.7,26.0,28.82,WSW,247,7.2,10.7,28,0.00,,,0.00,Rainwise IP-100,2013-02-16 20:17:00,
2013-02-16 14:22:00,59.1,26.0,28.81,WNW,292,6.5,13.1,28,0.00,,,0.00,Rainwise IP-100,2013-02-16 20:22:00,
2013-02-16 14:27:00,59.4,26.0,28.81,WSW,247,6.3,11.9,27,0.00,,,0.00,Rainwise IP-100,2013-02-16 20:27:00,
2013-02-16 14:32:00,59.3,26.0,28.81,SSW,202,4.9,14.2,27,0.00,,,0.00,Rainwise IP-100,2013-02-16 20:32:00,
2013-02-16 14:37:00,59.3,26.0,28.80,WNW,292,6.5,11.0,27,0.00,,,0.00,Rainwise IP-100,2013-02-16 20:37:00,
2013-02-16 14:42:00,59.3,26.0,28.80,SW,225,5.8,10.0,27,0.00,,,0.00,Rainwise IP-100,2013-02-16 20:42:00,
2013-02-16 14:47:00,59.5,24.0,28.80,WSW,247,6.5,12.8,26,0.00,,,0.00,Rainwise IP-100,2013-02-16 20:47:00,
2013-02-16 14:52:00,59.7,24.0,28.79,SW,225,4.7,10.7,26,0.00,,,0.00,Rainwise IP-100,2013-02-16 20:52:00,
2013-02-16 14:57:00,59.7,24.0,28.80,WSW,247,7.9,11.0,26,0.00,,,0.00,Rainwise IP-100,2013-02-16 20:57:00,
2013-02-16 15:02:00,60.0,26.0,28.79,South,180,7.0,15.4,26,0.00,,,0.00,Rainwise IP-100,2013-02-16 21:02:00,
2013-02-16 15:07:00,60.1,26.0,28.78,WSW,247,4.7,15.2,26,0.00,,,0.00,Rainwise IP-100,2013-02-16 21:07:00,
2013-02-16 15:12:00,60.3,26.0,28.78,West,270,8.2,11.7,26,0.00,,,0.00,Rainwise IP-100,2013-02-16 21:12:00,
2013-02-16 15:17:00,60.3,24.0,28.78,WSW,247,8.9,17.7,25,0.00,,,0.00,Rainwise IP-100,2013-02-16 21:17:00,
2013-02-16 15:22:00,60.5,24.0,28.78,West,270,8.4,13.3,25,0.00,,,0.00,Rainwise IP-100,2013-02-16 21:22:00,
2013-02-16 15:27:00,60.7,24.0,28.77,WSW,247,5.1,13.5,25,0.00,,,0.00,Rainwise IP-100,2013-02-16 21:27:00,
2013-02-16 15:32:00,61.0,24.0,28.77,West,270,10.5,12.6,24,0.00,,,0.00,Rainwise IP-100,2013-02-16 21:32:00,
2013-02-16 15:37:00,61.1,24.0,28.77,West,270,4.7,13.8,24,0.00,,,0.00,Rainwise IP-100,2013-02-16 21:37:00,
2013-02-16 15:42:00,61.2,24.0,28.77,WSW,247,3.5,11.2,24,0.00,,,0.00,Rainwise IP-100,2013-02-16 21:42:00,
2013-02-16 15:47:00,61.7,24.0,28.77,WSW,247,9.1,10.5,24,0.00,,,0.00,Rainwise IP-100,2013-02-16 21:47:00,
2013-02-16 15:52:00,61.9,24.0,28.77,WNW,292,6.3,12.1,24,0.00,,,0.00,Rainwise IP-100,2013-02-16 21:52:00,
2013-02-16 15:57:00,61.9,24.0,28.77,WSW,247,6.1,13.1,24,0.00,,,0.00,Rainwise IP-100,2013-02-16 21:57:00,
2013-02-16 16:02:00,61.9,24.0,28.77,WNW,292,7.2,11.2,24,0.00,,,0.00,Rainwise IP-100,2013-02-16 22:02:00,
2013-02-16 16:07:00,61.9,24.0,28.76,WNW,292,2.3,11.4,24,0.00,,,0.00,Rainwise IP-100,2013-02-16 22:07:00,
2013-02-16 16:12:00,62.1,24.0,28.77,West,270,7.0,11.2,24,0.00,,,0.00,Rainwise IP-100,2013-02-16 22:12:00,
2013-02-16 16:17:00,62.0,24.0,28.76,SW,225,4.7,12.6,23,0.00,,,0.00,Rainwise IP-100,2013-02-16 22:17:00,
2013-02-16 16:22:00,62.0,24.0,28.76,WNW,292,4.0,12.1,23,0.00,,,0.00,Rainwise IP-100,2013-02-16 22:22:00,
2013-02-16 16:27:00,62.4,26.0,28.76,West,270,4.0,10.7,24,0.00,,,0.00,Rainwise IP-100,2013-02-16 22:27:00,
2013-02-16 16:32:00,62.4,24.0,28.76,SW,225,6.1,10.7,23,0.00,,,0.00,Rainwise IP-100,2013-02-16 22:32:00,
2013-02-16 16:37:00,62.4,24.0,28.75,WSW,247,2.8,10.0,23,0.00,,,0.00,Rainwise IP-100,2013-02-16 22:37:00,
2013-02-16 16:42:00,62.8,24.0,28.75,West,270,2.1,7.7,23,0.00,,,0.00,Rainwise IP-100,2013-02-16 22:42:00,
2013-02-16 16:47:00,63.1,24.0,28.75,West,270,3.0,10.5,23,0.00,,,0.00,Rainwise IP-100,2013-02-16 22:47:00,
2013-02-16 16:52:00,63.0,24.0,28.75,WSW,247,4.9,10.3,23,0.00,,,0.00,Rainwise IP-100,2013-02-16 22:52:00,
2013-02-16 16:57:00,62.8,24.0,28.74,WNW,292,2.8,10.0,23,0.00,,,0.00,Rainwise IP-100,2013-02-16 22:57:00,
2013-02-16 17:02:00,62.7,24.0,28.74,WSW,247,4.7,12.4,23,0.00,,,0.00,Rainwise IP-100,2013-02-16 23:02:00,
2013-02-16 17:07:00,62.7,24.0,28.74,WSW,247,3.0,9.1,23,0.00,,,0.00,Rainwise IP-100,2013-02-16 23:07:00,
2013-02-16 17:12:00,62.9,24.0,28.74,SW,225,5.1,6.1,23,0.00,,,0.00,Rainwise IP-100,2013-02-16 23:12:00,
2013-02-16 17:17:00,62.9,24.0,28.74,WSW,247,7.0,10.3,23,0.00,,,0.00,Rainwise IP-100,2013-02-16 23:17:00,
2013-02-16 17:22:00,62.7,24.0,28.74,West,270,6.1,10.3,23,0.00,,,0.00,Rainwise IP-100,2013-02-16 23:22:00,
2013-02-16 17:27:00,62.5,26.0,28.73,WSW,247,4.7,8.2,24,0.00,,,0.00,Rainwise IP-100,2013-02-16 23:27:00,
2013-02-16 17:32:00,62.5,26.0,28.73,West,270,6.3,11.0,24,0.00,,,0.00,Rainwise IP-100,2013-02-16 23:32:00,
2013-02-16 17:37:00,62.5,26.0,28.73,WSW,247,3.0,8.6,24,0.00,,,0.00,Rainwise IP-100,2013-02-16 23:37:00,
2013-02-16 17:42:00,62.5,26.0,28.73,West,270,4.0,7.7,24,0.00,,,0.00,Rainwise IP-100,2013-02-16 23:42:00,
2013-02-16 17:47:00,62.3,26.0,28.73,WSW,247,5.6,7.9,24,0.00,,,0.00,Rainwise IP-100,2013-02-16 23:47:00,
2013-02-16 17:52:00,62.0,24.0,28.73,West,270,3.7,7.5,24,0.00,,,0.00,Rainwise IP-100,2013-02-16 23:52:00,
2013-02-16 17:57:00,61.8,24.0,28.73,WSW,247,1.9,5.6,24,0.00,,,0.00,Rainwise IP-100,2013-02-16 23:57:00,
2013-02-16 18:02:00,61.7,26.0,28.73,WSW,247,2.3,4.2,25,0.00,,,0.00,Rainwise IP-100,2013-02-17 00:02:00,
2013-02-16 18:07:00,61.5,26.0,28.73,WNW,292,3.3,3.3,25,0.00,,,0.00,Rainwise IP-100,2013-02-17 00:07:00,
2013-02-16 18:12:00,61.1,26.0,28.73,WNW,292,1.2,4.0,25,0.00,,,0.00,Rainwise IP-100,2013-02-17 00:12:00,
2013-02-16 18:17:00,60.5,26.0,28.73,WNW,292,0.0,2.6,26,0.00,,,0.00,Rainwise IP-100,2013-02-17 00:17:00,
2013-02-16 18:22:00,59.7,26.0,28.73,WNW,292,0.0,1.2,27,0.00,,,0.00,Rainwise IP-100,2013-02-17 00:22:00,
2013-02-16 18:27:00,58.8,26.0,28.73,WNW,292,0.0,0.0,28,0.00,,,0.00,Rainwise IP-100,2013-02-17 00:27:00,
2013-02-16 18:32:00,57.4,26.0,28.73,WNW,292,0.0,0.0,29,0.00,,,0.00,Rainwise IP-100,2013-02-17 00:32:00,
2013-02-16 18:37:00,56.1,26.0,28.73,WNW,292,0.0,0.0,31,0.00,,,0.00,Rainwise IP-100,2013-02-17 00:37:00,
2013-02-16 18:42:00,55.2,26.0,28.72,WNW,292,0.0,0.0,32,0.00,,,0.00,Rainwise IP-100,2013-02-17 00:42:00,
2013-02-16 18:47:00,54.0,26.0,28.73,WNW,292,0.0,0.0,34,0.00,,,0.00,Rainwise IP-100,2013-02-17 00:47:00,
2013-02-16 18:52:00,52.7,26.0,28.73,WNW,292,0.0,0.0,35,0.00,,,0.00,Rainwise IP-100,2013-02-17 00:52:00,
2013-02-16 18:57:00,51.4,26.0,28.72,WNW,292,0.0,0.0,37,0.00,,,0.00,Rainwise IP-100,2013-02-17 00:57:00,
2013-02-16 19:02:00,50.6,26.0,28.73,WNW,292,0.0,0.0,38,0.00,,,0.00,Rainwise IP-100,2013-02-17 01:02:00,
2013-02-16 19:07:00,49.8,26.0,28.73,WNW,292,0.0,0.0,40,0.00,,,0.00,Rainwise IP-100,2013-02-17 01:07:00,
2013-02-16 19:12:00,49.0,28.0,28.72,WNW,292,0.0,0.0,42,0.00,,,0.00,Rainwise IP-100,2013-02-17 01:12:00,
2013-02-16 19:17:00,48.2,26.0,28.73,WNW,292,0.0,0.0,42,0.00,,,0.00,Rainwise IP-100,2013-02-17 01:17:00,
2013-02-16 19:22:00,48.0,28.0,28.73,WNW,292,0.0,0.0,43,0.00,,,0.00,Rainwise IP-100,2013-02-17 01:22:00,
2013-02-16 19:27:00,47.7,28.0,28.73,WNW,292,0.0,0.0,44,0.00,,,0.00,Rainwise IP-100,2013-02-17 01:27:00,
2013-02-16 19:32:00,47.1,26.0,28.74,WNW,292,0.0,1.4,45,0.00,,,0.00,Rainwise IP-100,2013-02-17 01:32:00,
2013-02-16 19:37:00,46.8,26.0,28.73,WNW,292,0.0,0.0,45,0.00,,,0.00,Rainwise IP-100,2013-02-17 01:37:00,
2013-02-16 19:42:00,46.7,26.0,28.73,WNW,292,0.0,0.0,45,0.00,,,0.00,Rainwise IP-100,2013-02-17 01:42:00,
2013-02-16 19:47:00,46.4,26.0,28.72,WNW,292,0.0,1.2,46,0.00,,,0.00,Rainwise IP-100,2013-02-17 01:47:00,
2013-02-16 19:52:00,46.2,28.0,28.73,WNW,292,0.0,0.0,47,0.00,,,0.00,Rainwise IP-100,2013-02-17 01:52:00,
2013-02-16 19:57:00,46.1,28.0,28.73,WNW,292,0.0,0.0,48,0.00,,,0.00,Rainwise IP-100,2013-02-17 01:57:00,
2013-02-16 20:02:00,45.6,28.0,28.73,WNW,292,0.0,0.0,48,0.00,,,0.00,Rainwise IP-100,2013-02-17 02:02:00,
2013-02-16 20:07:00,45.1,28.0,28.73,WNW,292,0.0,0.0,49,0.00,,,0.00,Rainwise IP-100,2013-02-17 02:07:00,
2013-02-16 20:12:00,44.7,28.0,28.72,WNW,292,0.0,1.2,49,0.00,,,0.00,Rainwise IP-100,2013-02-17 02:12:00,
2013-02-16 20:17:00,44.9,28.0,28.72,WNW,292,0.0,1.2,49,0.00,,,0.00,Rainwise IP-100,2013-02-17 02:17:00,
2013-02-16 20:22:00,45.2,26.0,28.72,WNW,292,0.0,0.0,48,0.00,,,0.00,Rainwise IP-100,2013-02-17 02:22:00,
2013-02-16 20:27:00,44.8,28.0,28.72,WNW,292,0.0,0.0,50,0.00,,,0.00,Rainwise IP-100,2013-02-17 02:27:00,
2013-02-16 20:32:00,45.2,26.0,28.72,WNW,292,0.0,0.0,48,0.00,,,0.00,Rainwise IP-100,2013-02-17 02:32:00,
2013-02-16 20:37:00,46.4,26.0,28.72,WNW,292,0.0,0.0,46,0.00,,,0.00,Rainwise IP-100,2013-02-17 02:37:00,
2013-02-16 20:42:00,46.9,26.0,28.72,WNW,292,0.0,0.0,45,0.00,,,0.00,Rainwise IP-100,2013-02-17 02:42:00,
2013-02-16 20:47:00,46.3,26.0,28.72,WNW,292,0.0,0.0,45,0.00,,,0.00,Rainwise IP-100,2013-02-17 02:47:00,
2013-02-16 20:52:00,46.2,26.0,28.72,South,180,0.0,1.4,45,0.00,,,0.00,Rainwise IP-100,2013-02-17 02:52:00,
2013-02-16 20:57:00,47.2,26.0,28.73,South,180,0.0,0.0,43,0.00,,,0.00,Rainwise IP-100,2013-02-17 02:57:00,
2013-02-16 21:02:00,48.3,26.0,28.72,South,180,0.0,0.0,42,0.00,,,0.00,Rainwise IP-100,2013-02-17 03:02:00,
2013-02-16 21:07:00,48.0,26.0,28.72,South,180,0.0,0.0,42,0.00,,,0.00,Rainwise IP-100,2013-02-17 03:07:00,
2013-02-16 21:12:00,47.0,26.0,28.72,South,180,0.0,0.0,43,0.00,,,0.00,Rainwise IP-100,2013-02-17 03:12:00,
2013-02-16 21:17:00,46.9,26.0,28.72,South,180,0.0,0.0,43,0.00,,,0.00,Rainwise IP-100,2013-02-17 03:17:00,
2013-02-16 21:22:00,47.0,26.0,28.73,South,180,0.0,0.0,43,0.00,,,0.00,Rainwise IP-100,2013-02-17 03:22:00,
2013-02-16 21:27:00,47.5,26.0,28.73,ESE,112,0.0,2.8,43,0.00,,,0.00,Rainwise IP-100,2013-02-17 03:27:00,
2013-02-16 21:32:00,48.2,26.0,28.73,ESE,112,0.0,1.2,42,0.00,,,0.00,Rainwise IP-100,2013-02-17 03:32:00,
2013-02-16 21:37:00,48.4,26.0,28.73,ESE,112,0.0,0.0,41,0.00,,,0.00,Rainwise IP-100,2013-02-17 03:37:00,
2013-02-16 21:42:00,48.5,26.0,28.73,ESE,112,0.0,0.0,41,0.00,,,0.00,Rainwise IP-100,2013-02-17 03:42:00,
2013-02-16 21:47:00,48.6,26.0,28.73,ESE,112,0.0,1.2,40,0.00,,,0.00,Rainwise IP-100,2013-02-17 03:47:00,
2013-02-16 21:52:00,48.4,26.0,28.72,ESE,112,0.0,1.4,40,0.00,,,0.00,Rainwise IP-100,2013-02-17 03:52:00,
2013-02-16 21:57:00,48.2,26.0,28.73,ESE,112,1.2,1.9,41,0.00,,,0.00,Rainwise IP-100,2013-02-17 03:57:00,
2013-02-16 22:02:00,48.1,26.0,28.72,ESE,112,0.0,1.9,41,0.00,,,0.00,Rainwise IP-100,2013-02-17 04:02:00,
2013-02-16 22:07:00,47.9,26.0,28.73,ESE,112,0.0,1.6,41,0.00,,,0.00,Rainwise IP-100,2013-02-17 04:07:00,
2013-02-16 22:12:00,47.7,26.0,28.73,ESE,112,0.0,1.4,41,0.00,,,0.00,Rainwise IP-100,2013-02-17 04:12:00,
2013-02-16 22:17:00,47.5,26.0,28.73,ESE,112,1.2,1.6,41,0.00,,,0.00,Rainwise IP-100,2013-02-17 04:17:00,
2013-02-16 22:22:00,47.4,26.0,28.73,ESE,112,1.6,3.0,42,0.00,,,0.00,Rainwise IP-100,2013-02-17 04:22:00,
2013-02-16 22:27:00,47.6,26.0,28.72,ESE,112,0.0,3.7,42,0.00,,,0.00,Rainwise IP-100,2013-02-17 04:27:00,
2013-02-16 22:32:00,47.7,26.0,28.73,ESE,112,0.0,2.6,42,0.00,,,0.00,Rainwise IP-100,2013-02-17 04:32:00,
2013-02-16 22:37:00,47.5,26.0,28.72,ESE,112,1.4,2.6,42,0.00,,,0.00,Rainwise IP-100,2013-02-17 04:37:00,
2013-02-16 22:42:00,47.1,24.0,28.72,ESE,112,1.4,2.3,42,0.00,,,0.00,Rainwise IP-100,2013-02-17 04:42:00,
2013-02-16 22:47:00,46.7,26.0,28.72,East,90,1.6,3.5,43,0.00,,,0.00,Rainwise IP-100,2013-02-17 04:47:00,
2013-02-16 22:52:00,46.3,26.0,28.72,East,90,2.1,3.5,44,0.00,,,0.00,Rainwise IP-100,2013-02-17 04:52:00,
2013-02-16 22:57:00,46.5,26.0,28.72,East,90,3.3,3.3,44,0.00,,,0.00,Rainwise IP-100,2013-02-17 04:57:00,
2013-02-16 23:00:00,46.9,26.0,28.72,East,90,2.1,4.2,43,0.00,,,0.00,Rainwise IP-100,2013-02-17 05:00:00,
2013-02-16 23:05:00,47.1,24.0,28.72,ESE,112,2.3,3.3,42,0.00,,,0.00,Rainwise IP-100,2013-02-17 05:05:00,
2013-02-16 23:10:00,46.9,24.0,28.72,ESE,112,0.0,3.7,42,0.00,,,0.00,Rainwise IP-100,2013-02-17 05:10:00,
2013-02-16 23:15:00,46.7,24.0,28.71,ESE,112,1.6,1.9,42,0.00,,,0.00,Rainwise IP-100,2013-02-17 05:15:00,
2013-02-16 23:20:00,46.6,26.0,28.71,East,90,1.2,2.6,43,0.00,,,0.00,Rainwise IP-100,2013-02-17 05:20:00,
2013-02-16 23:25:00,46.5,26.0,28.71,East,90,0.0,2.3,43,0.00,,,0.00,Rainwise IP-100,2013-02-17 05:25:00,
2013-02-16 23:30:00,46.4,24.0,28.72,East,90,1.4,1.6,43,0.00,,,0.00,Rainwise IP-100,2013-02-17 05:30:00,
2013-02-16 23:35:00,46.4,24.0,28.71,East,90,0.0,1.4,43,0.00,,,0.00,Rainwise IP-100,2013-02-17 05:35:00,
2013-02-16 23:40:00,46.2,24.0,28.71,East,90,0.0,0.0,43,0.00,,,0.00,Rainwise IP-100,2013-02-17 05:40:00,
2013-02-16 23:45:00,45.9,24.0,28.71,East,90,0.0,2.1,43,0.00,,,0.00,Rainwise IP-100,2013-02-17 05:45:00,
2013-02-16 23:50:00,45.7,24.0,28.71,East,90,0.0,1.4,43,0.00,,,0.00,Rainwise IP-100,2013-02-17 05:50:00,
2013-02-16 23:55:00,45.5,26.0,28.71,East,90,0.0,1.4,44,0.00,,,0.00,Rainwise IP-100,2013-02-17 05:55:00,